Weather History for KFAM - March, 2013

Change the Weather History Date:

Tuesday, March 12, 2013

  Actual Average (KCGI) Record (KCGI)
Temperature  
Mean Temperature 38 °F 46 °F  
Max Temperature 51 °F 57 °F 82 °F (1967)
Min Temperature 24 °F 35 °F 10 °F (1998)
Degree Days  
Heating Degree Days 28 19  
Month to date heating degree days 252  
Since 1 July heating degree days 3749  
Cooling Degree Days 0 0  
Month to date cooling degree days 0  
Year to date cooling degree days 0  
Moisture  
Dew Point 22 °F    
Average Humidity 58    
Maximum Humidity 93    
Minimum Humidity 30    
Precipitation  
Precipitation 0.00 in 0.13 in 1.49 in (1961)
Month to date precipitation 1.53  
Year to date precipitation 8.41  
Sea Level Pressure  
Sea Level Pressure 30.10 in    
Wind  
Wind Speed 6 mph (WNW)    
Max Wind Speed 16 mph    
Max Gust Speed 31 mph    
Visibility 10 miles    
Events      
T = Trace of Precipitation, MM = Missing Value Source: NWS Daily Summary

Daily Weather History Graph

Daily Weather History Graph

Search for Another Location

Airport or City:

Trip Planner

Search our weather history database for the weather conditions in past years. The results will help you decide how hot, cold, wet, or windy it might be!

Date:

Astronomy

Mar. 12, 2013 Rise Set
Actual Time 7:16 AM CDT 7:06 PM CDT
Civil Twilight 6:50 AM CDT 7:32 PM CDT
Nautical Twilight 6:20 AM CDT 8:02 PM CDT
Astronomical Twilight 5:49 AM CDT 8:33 PM CDT
Moon 7:25 AM CDT (3/12) 8:19 PM CDT (3/12)
Length of Visible Light 12h 41m
Length of Day
11h 49m
New Moon, 1% of the Moon is Illuminated
Mar 12
New Moon
Mar 19
First Quarter
Mar 27
Full
Apr 2
Last Quarter
Apr 10
New

Hourly Weather History & Observations

Time (CDT) Temp. Windchill Dew Point Humidity Pressure Visibility Wind Dir Wind Speed Gust Speed Precip Events Conditions
12:15 AM 28.4 °F 24.6 °F 23.0 °F 80% 30.01 in 10.0 mi SSW 3.5 mph - N/A   Clear
12:35 AM 28.4 °F - 23.0 °F 80% 30.01 in 10.0 mi Calm Calm - N/A   Clear
12:55 AM 28.4 °F - 24.8 °F 86% 30.01 in 10.0 mi Calm Calm - N/A   Clear
1:15 AM 28.4 °F - 23.0 °F 80% 30.01 in 10.0 mi Calm Calm - N/A   Clear
1:35 AM 28.4 °F - 24.8 °F 86% 30.01 in 10.0 mi Calm Calm - N/A   Clear
1:55 AM 26.6 °F - 21.2 °F 80% 30.01 in 10.0 mi Calm Calm - N/A   Clear
2:15 AM 26.6 °F 22.6 °F 23.0 °F 86% 30.04 in 10.0 mi West 3.5 mph - N/A   Clear
2:35 AM 26.6 °F - 24.8 °F 93% 30.02 in 10.0 mi Calm Calm - N/A   Clear
2:55 AM 26.6 °F 22.6 °F 21.2 °F 80% 30.01 in 10.0 mi West 3.5 mph - N/A   Clear
3:15 AM 24.8 °F 20.5 °F 21.2 °F 86% 30.04 in 10.0 mi West 3.5 mph - N/A   Clear
3:35 AM 26.6 °F 21.2 °F 23.0 °F 86% 30.03 in 10.0 mi West 4.6 mph - N/A   Clear
3:55 AM 26.6 °F 22.6 °F 23.0 °F 86% 30.03 in 10.0 mi West 3.5 mph - N/A   Clear
4:15 AM 26.6 °F 22.6 °F 21.2 °F 80% 30.02 in 10.0 mi West 3.5 mph - N/A   Clear
4:35 AM 26.6 °F 21.2 °F 21.2 °F 80% 30.03 in 10.0 mi West 4.6 mph - N/A   Clear
4:55 AM 26.6 °F 22.6 °F 21.2 °F 80% 30.04 in 10.0 mi West 3.5 mph - N/A   Clear
5:15 AM 26.6 °F 22.6 °F 21.2 °F 80% 30.04 in 10.0 mi West 3.5 mph - N/A   Clear
5:35 AM 26.6 °F 21.2 °F 21.2 °F 80% 30.06 in 10.0 mi West 4.6 mph - N/A   Clear
5:55 AM 26.6 °F - 21.2 °F 80% 30.05 in 10.0 mi Calm Calm - N/A   Clear
6:15 AM 26.6 °F - 21.2 °F 80% 30.06 in 10.0 mi Calm Calm - N/A   Clear
6:35 AM 28.4 °F 24.6 °F 21.2 °F 74% 30.07 in 10.0 mi West 3.5 mph - N/A   Clear
6:55 AM 26.6 °F 22.6 °F 19.4 °F 74% 30.07 in 10.0 mi West 3.5 mph - N/A   Clear
7:15 AM 28.4 °F 23.3 °F 19.4 °F 69% 30.07 in 10.0 mi West 4.6 mph - N/A   Clear
7:35 AM 28.4 °F 22.2 °F 21.2 °F 74% 30.07 in 10.0 mi WNW 5.8 mph - N/A   Clear
7:55 AM 28.4 °F 22.2 °F 21.2 °F 74% 30.08 in 10.0 mi West 5.8 mph - N/A   Clear
8:15 AM 28.4 °F 23.3 °F 21.2 °F 74% 30.08 in 10.0 mi West 4.6 mph - N/A   Clear
8:35 AM 28.4 °F 22.2 °F 21.2 °F 74% 30.12 in 10.0 mi West 5.8 mph - N/A   Clear
8:55 AM 30.2 °F 21.9 °F 21.2 °F 69% 30.11 in 10.0 mi WNW 9.2 mph - N/A   Clear
9:15 AM 30.2 °F 23.4 °F 23.0 °F 75% 30.12 in 10.0 mi WNW 6.9 mph - N/A   Clear
9:35 AM 32.0 °F 26.4 °F 23.0 °F 69% 30.11 in 10.0 mi West 5.8 mph - N/A   Clear
9:55 AM 33.8 °F 25.8 °F 23.0 °F 65% 30.14 in 10.0 mi West 10.4 mph - N/A   Clear
10:15 AM 35.6 °F 27.5 °F 21.2 °F 56% 30.14 in 10.0 mi West 11.5 mph 17.3 mph N/A   Clear
10:35 AM 35.6 °F 29.2 °F 21.2 °F 56% 30.14 in 10.0 mi WNW 8.1 mph - N/A   Clear
10:55 AM 37.4 °F 31.4 °F 17.6 °F 45% 30.14 in 10.0 mi West 8.1 mph - N/A   Clear
11:15 AM 37.4 °F 31.4 °F 19.4 °F 48% 30.15 in 10.0 mi West 8.1 mph - N/A   Clear
11:35 AM 39.2 °F 34.2 °F 19.4 °F 45% 30.15 in 10.0 mi West 6.9 mph - N/A   Clear
11:55 AM 41.0 °F 33.5 °F 19.4 °F 42% 30.15 in 10.0 mi West 13.8 mph 20.7 mph N/A   Clear
12:15 PM 42.8 °F 36.6 °F 21.2 °F 42% 30.15 in 10.0 mi West 11.5 mph 16.1 mph N/A   Clear
12:35 PM 42.8 °F 37.5 °F 24.8 °F 49% 30.15 in 10.0 mi West 9.2 mph - N/A   Clear
12:55 PM 44.6 °F 39.7 °F 24.8 °F 46% 30.14 in 10.0 mi West 9.2 mph 16.1 mph N/A   Clear
1:15 PM 46.4 °F 42.4 °F 23.0 °F 40% 30.14 in 10.0 mi West 8.1 mph - N/A   Clear
1:35 PM 46.4 °F 41.5 °F 21.2 °F 37% 30.13 in 10.0 mi West 10.4 mph 20.7 mph N/A   Clear
1:55 PM 48.2 °F - 21.2 °F 34% 30.12 in 10.0 mi NW 15.0 mph 23.0 mph N/A   Clear
2:15 PM 48.2 °F - 23.0 °F 37% 30.12 in 10.0 mi West 11.5 mph 18.4 mph N/A   Scattered Clouds
2:35 PM 50.0 °F - 21.2 °F 32% 30.11 in 10.0 mi WNW 11.5 mph 19.6 mph N/A   Partly Cloudy
2:55 PM 50.0 °F - 23.0 °F 35% 30.10 in 10.0 mi WNW 13.8 mph 19.6 mph N/A   Clear
3:15 PM 51.8 °F - 24.8 °F 35% 30.09 in 10.0 mi West 16.1 mph 21.9 mph N/A   Scattered Clouds
3:35 PM 50.0 °F - 21.2 °F 32% 30.09 in 10.0 mi WNW 13.8 mph 23.0 mph N/A   Partly Cloudy
3:55 PM 50.0 °F - 21.2 °F 32% 30.10 in 10.0 mi West 12.7 mph 27.6 mph N/A   Partly Cloudy
4:15 PM 51.8 °F - 21.2 °F 30% 30.10 in 10.0 mi West 10.4 mph 24.2 mph N/A   Mostly Cloudy
4:35 PM 50.0 °F - 19.4 °F 30% 30.10 in 10.0 mi West 15.0 mph 21.9 mph N/A   Mostly Cloudy
4:55 PM 48.2 °F - 21.2 °F 34% 30.10 in 10.0 mi WNW 13.8 mph 23.0 mph N/A   Mostly Cloudy
5:15 PM 50.0 °F - 21.2 °F 32% 30.10 in 10.0 mi WNW 13.8 mph 20.7 mph N/A   Overcast
5:35 PM 48.2 °F - 21.2 °F 34% 30.10 in 10.0 mi West 16.1 mph 31.1 mph N/A   Mostly Cloudy
5:55 PM 48.2 °F - 21.2 °F 34% 30.10 in 10.0 mi West 13.8 mph 23.0 mph N/A   Scattered Clouds
6:15 PM 48.2 °F - 21.2 °F 34% 30.10 in 10.0 mi West 13.8 mph 20.7 mph N/A   Mostly Cloudy
6:35 PM 46.4 °F 40.4 °F 21.2 °F 37% 30.11 in 10.0 mi West 13.8 mph 24.2 mph N/A   Mostly Cloudy
6:55 PM 46.4 °F 40.1 °F 23.0 °F 40% 30.12 in 10.0 mi WNW 15.0 mph 25.3 mph N/A   Mostly Cloudy
7:15 PM 44.6 °F 37.8 °F 24.8 °F 46% 30.13 in 10.0 mi West 15.0 mph 23.0 mph N/A   Mostly Cloudy
7:35 PM 44.6 °F 37.4 °F 23.0 °F 43% 30.14 in 10.0 mi NW 16.1 mph 24.2 mph N/A   Scattered Clouds
7:55 PM 42.8 °F 36.6 °F 21.2 °F 42% 30.15 in 10.0 mi WNW 11.5 mph 17.3 mph N/A   Partly Cloudy
8:15 PM 42.8 °F 37.0 °F 21.2 °F 42% 30.16 in 10.0 mi NW 10.4 mph - N/A   Clear
8:35 PM 42.8 °F 37.0 °F 21.2 °F 42% 30.17 in 10.0 mi WNW 10.4 mph - N/A   Scattered Clouds
8:55 PM 41.0 °F 32.8 °F 21.2 °F 45% 30.17 in 10.0 mi WNW 16.1 mph 19.6 mph N/A   Mostly Cloudy
9:15 PM 39.2 °F 33.6 °F 21.2 °F 49% 30.18 in 10.0 mi WNW 8.1 mph - N/A   Scattered Clouds
9:35 PM 39.2 °F 33.6 °F 21.2 °F 49% 30.19 in 10.0 mi WNW 8.1 mph - N/A   Partly Cloudy
9:55 PM 37.4 °F 32.1 °F 23.0 °F 56% 30.19 in 10.0 mi NW 6.9 mph - N/A   Partly Cloudy
10:15 PM 37.4 °F 30.8 °F 21.2 °F 52% 30.20 in 10.0 mi WNW 9.2 mph - N/A   Scattered Clouds
10:35 PM 37.4 °F 30.8 °F 21.2 °F 52% 30.20 in 10.0 mi WNW 9.2 mph - N/A   Clear
10:55 PM 37.4 °F 29.3 °F 21.2 °F 52% 30.21 in 10.0 mi WNW 12.7 mph - N/A   Partly Cloudy
11:15 PM 37.4 °F 28.9 °F 21.2 °F 52% 30.21 in 10.0 mi West 13.8 mph 20.7 mph N/A   Mostly Cloudy
11:35 PM 35.6 °F 27.5 °F 21.2 °F 56% 30.22 in 10.0 mi WNW 11.5 mph 18.4 mph N/A   Partly Cloudy
11:55 PM 35.6 °F 26.2 °F 21.2 °F 56% 30.22 in 10.0 mi West 15.0 mph 26.5 mph N/A   Clear